Date,TemperatureHighF,TemperatureAvgF,TemperatureLowF,DewpointHighF,DewpointAvgF,DewpointLowF,HumidityHigh,HumidityAvg,HumidityLow,PressureMaxIn,PressureMinIn,WindSpeedMaxMPH,WindSpeedAvgMPH,GustSpeedMaxMPH,PrecipitationSumIn
2013-1-2,24,19,12,21,16,9,90,86,82,0.00,40.00,14,7,19,0.00
2013-1-3,20,12,1,14,7,-4,85,78,64,0.00,40.00,14,8,23,0.00
2013-1-4,30,19,5,18,12,1,89,74,60,0.00,40.00,10,4,13,0.00
2013-1-5,26,12,1,19,8,-4,86,81,74,0.00,40.00,14,5,17,0.00
2013-1-6,21,11,-3,10,4,-8,84,74,58,0.00,40.00,18,6,22,0.00
2013-1-7,39,25,9,25,18,5,88,74,53,0.00,40.00,16,8,29,0.00
2013-1-8,32,20,4,27,17,0,91,84,72,0.00,40.00,12,7,21,0.00
2013-1-9,33,26,18,25,18,12,82,73,63,0.00,40.00,21,11,36,0.00
2013-1-10,46,34,20,32,23,14,95,66,42,0.00,40.00,27,16,35,0.00
2013-1-11,33,33,27,32,32,25,98,97,95,0.00,40.00,17,5,22,0.00
2013-1-12,27,9,-3,27,2,-9,95,75,62,0.00,40.00,17,11,24,0.01
2013-1-13,9,1,-5,0,-6,-11,77,72,61,0.00,40.00,12,5,17,0.01
2013-1-14,15,6,0,3,-2,-8,76,68,54,0.00,40.00,10,6,16,0.00
2013-1-15,25,14,2,14,5,-2,81,66,44,0.00,40.00,16,10,23,0.00
2013-1-16,28,14,-3,25,4,-13,91,66,41,0.00,40.00,21,12,31,0.00
2013-1-17,9,2,-4,-2,-8,-13,73,63,50,0.00,40.00,11,4,17,0.00
2013-1-18,21,14,5,18,9,-4,86,80,67,0.00,40.00,11,4,15,0.00
2013-1-19,27,12,-7,23,6,-15,92,76,60,0.00,40.00,24,12,34,0.00
2013-1-20,0,-8,-14,-11,-17,-26,72,65,53,0.00,40.00,16,7,22,0.00
2013-1-21,-9,-15,-21,-22,-26,-29,66,59,47,0.00,40.00,14,8,21,0.00
2013-1-22,2,-11,-23,-11,-21,-31,69,60,46,0.00,40.00,7,4,10,0.00
2013-1-23,3,-5,-17,-2,-14,-26,77,65,49,0.00,40.00,24,11,32,0.00
2013-1-24,4,-7,-19,-4,-17,-27,71,62,50,0.00,40.00,18,9,23,0.00
2013-1-25,10,4,-9,5,-3,-17,80,71,59,0.00,40.00,19,9,26,0.00
2013-1-26,13,3,-13,3,-5,-20,74,68,59,0.00,40.00,17,8,21,0.00
2013-1-27,30,20,7,23,11,1,79,70,58,0.00,40.00,9,5,12,0.00
2013-1-28,33,30,27,30,27,21,97,90,73,0.00,40.00,9,4,12,0.06
2013-1-29,31,25,15,30,22,9,97,89,79,0.00,40.00,17,7,24,0.10
2013-1-30,14,7,1,9,1,-6,79,75,69,0.00,40.00,19,11,23,0.01
2013-1-31,1,-9,-19,-6,-19,-29,75,61,58,0.00,40.00,18,11,28,0.00
2013-2-1,-3,-15,-35,-9,-24,-45,73,61,47,0.00,40.00,9,4,12,0.00
2013-2-2,8,-3,-21,1,-10,-29,76,70,55,0.00,40.00,10,4,16,0.00
2013-2-3,8,1,-12,-2,-8,-20,74,66,50,0.00,40.00,14,5,18,0.00
2013-2-4,12,-3,-25,7,-11,-33,84,68,47,0.00,40.00,16,7,21,0.00
2013-2-5,17,10,0,14,4,-8,90,73,54,0.00,40.00,19,7,22,0.00
2013-2-6,19,12,-1,16,8,-6,90,82,72,0.00,40.00,9,4,12,0.02
2013-2-7,21,13,-10,16,9,-17,88,83,73,0.00,40.00,11,5,12,0.01
2013-2-8,26,9,-11,19,2,-18,88,74,66,0.00,40.00,17,7,22,0.00
2013-2-9,28,24,17,25,21,10,95,89,74,0.00,40.00,16,10,21,0.00
2013-2-10,27,26,24,27,25,21,95,94,90,0.00,40.00,24,12,29,0.22
2013-2-11,24,18,6,21,14,1,94,83,75,0.00,40.00,23,13,28,0.06
2013-2-12,36,23,6,23,16,1,88,76,57,0.00,40.00,10,6,15,0.01
2013-2-13,31,23,8,25,18,5,91,84,74,0.00,40.00,7,3,9,0.00
2013-2-14,26,14,6,23,5,-2,90,70,39,0.00,40.00,18,10,22,0.00
2013-2-15,13,6,-3,1,-2,-8,81,70,54,0.00,40.00,14,7,19,0.00
2013-2-16,19,8,-1,3,0,-8,80,68,44,0.00,40.00,11,4,12,0.00
2013-2-17,28,20,9,21,14,1,82,76,71,0.00,40.00,25,16,32,0.00
2013-2-18,27,17,2,23,12,-6,91,78,65,0.00,40.00,27,14,37,0.01
2013-2-19,3,-2,-8,-6,-12,-18,72,64,53,0.00,40.00,30,18,38,0.01
2013-2-20,11,-2,-18,-2,-14,-26,71,56,40,0.00,40.00,12,4,14,0.00
2013-2-21,22,7,-13,10,-6,-22,78,56,39,0.00,40.00,10,4,13,0.00
2013-2-22,24,19,14,23,16,10,93,90,78,0.00,40.00,10,6,12,0.00
2013-2-23,27,18,8,23,15,3,91,87,79,0.00,40.00,4,2,7,0.00
2013-2-24,33,19,7,25,13,3,90,78,61,0.00,40.00,9,3,11,0.00
2013-2-25,37,20,6,25,14,3,90,78,54,0.00,40.00,8,5,10,0.00
2013-2-26,35,18,2,23,11,-4,89,76,54,0.00,40.00,9,3,10,0.00
2013-2-27,38,28,17,23,17,9,80,65,49,0.00,40.00,21,12,26,0.00
2013-2-28,28,23,18,19,15,9,81,71,57,0.00,40.00,19,10,24,0.00
2013-3-1,31,19,3,12,7,-4,74,60,34,0.00,40.00,8,3,11,0.00
2013-3-2,30,14,-8,14,3,-13,79,63,38,0.00,40.00,9,4,11,0.00
2013-3-3,33,25,13,14,9,3,70,51,33,0.00,40.00,16,9,22,0.00
2013-3-4,27,24,22,21,15,9,91,68,46,0.00,40.00,24,11,32,0.01
2013-3-5,25,22,18,21,19,14,92,89,84,0.00,40.00,14,10,15,0.07
2013-3-6,26,17,-1,14,9,-6,86,74,54,0.00,40.00,13,5,16,0.01
2013-3-7,31,13,-10,18,4,-17,86,68,52,0.00,40.00,14,6,21,0.00
2013-3-8,35,27,13,27,20,5,85,74,64,0.00,40.00,12,5,15,0.00
2013-3-9,35,31,24,34,30,21,98,95,85,0.00,40.00,16,6,21,0.06
2013-3-10,29,23,13,28,17,5,97,76,61,0.00,40.00,20,13,24,0.02
2013-3-11,26,16,4,16,8,0,85,73,58,0.00,40.00,11,5,12,0.00
2013-3-12,24,18,9,12,8,3,83,66,45,0.00,40.00,22,11,28,0.00
2013-3-13,29,16,2,16,8,-4,86,72,50,0.00,40.00,11,4,14,0.00
2013-3-14,44,30,16,28,22,14,90,74,50,0.00,40.00,12,6,14,0.00
2013-3-15,29,21,11,23,15,7,90,77,53,0.00,40.00,18,12,20,0.15
2013-3-16,14,6,-3,7,-2,-11,84,69,51,0.00,40.00,16,8,24,0.11
2013-3-17,20,3,-24,14,-8,-33,84,60,41,0.00,40.00,22,9,29,0.00
2013-3-18,27,19,8,25,16,1,93,85,72,0.00,40.00,23,14,34,0.03
2013-3-19,16,8,1,1,-4,-8,77,60,42,0.00,40.00,20,13,31,0.01
2013-3-20,19,9,0,3,-4,-9,70,54,44,0.00,40.00,21,12,29,0.00
2013-3-21,26,8,-14,10,-3,-22,76,62,43,0.00,40.00,9,3,11,0.00
2013-3-22,36,14,-13,16,3,-20,81,63,37,0.00,40.00,7,2,9,0.00
2013-3-23,36,24,10,21,16,5,87,71,45,0.00,40.00,10,4,12,0.00
2013-3-24,34,27,23,21,18,16,78,67,49,0.00,40.00,17,9,21,0.00
2013-3-25,33,26,19,19,15,10,74,61,44,0.00,40.00,20,11,22,0.00
2013-3-26,40,24,7,21,13,3,86,65,34,0.00,40.00,6,2,12,0.00
2013-3-27,43,28,13,19,14,9,85,60,29,0.00,40.00,7,2,7,0.00
2013-3-28,45,30,11,25,17,9,87,62,32,0.00,40.00,9,4,11,0.00
2013-3-29,50,38,30,30,27,21,80,64,43,0.00,40.00,9,5,11,0.00
2013-3-30,50,40,33,36,30,-100,97,72,43,0.00,40.00,15,6,24,0.00
2013-3-31,33,27,17,28,16,7,91,63,44,0.00,40.00,29,14,35,0.00
2013-4-1,29,19,10,10,7,3,77,59,35,0.00,40.00,17,9,24,0.00
2013-4-2,33,23,13,14,10,7,84,59,33,0.00,40.00,13,6,19,0.00
2013-4-3,41,28,11,32,17,7,84,64,42,0.00,40.00,25,11,35,0.00
2013-4-4,38,32,24,32,22,14,90,67,44,0.00,40.00,18,10,27,0.00
2013-4-5,36,27,13,27,17,9,86,66,44,0.00,40.00,17,7,21,0.00
2013-4-6,35,33,31,34,30,27,93,87,82,0.00,40.00,16,8,21,0.04
2013-4-7,41,35,32,32,28,25,96,78,61,0.00,40.00,12,4,14,0.03
2013-4-8,36,34,26,32,30,16,98,87,65,0.00,40.00,17,8,22,0.03
2013-4-9,35,24,15,21,14,7,72,65,51,0.00,40.00,18,12,21,0.00
2013-4-10,40,31,19,25,17,10,72,56,32,0.00,40.00,14,8,18,0.00
2013-4-11,37,29,26,25,19,14,92,67,42,0.00,40.00,21,12,30,0.01
2013-4-12,32,28,25,25,24,21,95,85,67,0.00,40.00,14,10,18,0.05
2013-4-13,36,28,21,25,20,16,93,73,51,0.00,40.00,15,4,17,0.01
2013-4-14,41,28,13,30,20,10,97,75,39,0.00,40.00,22,10,35,0.02
2013-4-15,41,34,30,32,30,27,97,86,58,0.00,40.00,19,7,29,0.02
2013-4-16,39,34,29,32,26,21,94,73,49,0.00,40.00,13,6,18,0.00
2013-4-17,36,33,31,32,29,27,95,85,74,0.00,40.00,9,4,11,0.01
2013-4-18,34,31,29,30,28,27,96,91,72,0.00,40.00,23,15,28,0.03
2013-4-19,33,29,24,28,17,3,93,63,31,0.00,40.00,28,19,34,0.03
2013-4-20,40,28,13,18,11,1,85,53,23,0.00,40.00,11,4,14,0.00
2013-4-21,37,32,22,34,26,12,96,79,59,0.00,40.00,23,11,30,0.03
2013-4-22,36,32,27,27,23,18,89,70,51,0.00,40.00,14,9,20,0.01
2013-4-23,38,30,22,19,16,12,74,56,38,0.00,40.00,14,8,21,0.00
2013-4-24,42,32,18,30,22,14,87,71,42,0.00,40.00,11,5,16,0.00
2013-4-25,44,36,29,28,26,19,90,68,36,0.00,40.00,12,7,18,0.00
2013-4-26,65,45,30,34,29,25,82,56,23,0.00,40.00,11,4,12,0.00
2013-4-27,68,48,33,34,30,27,83,54,21,0.00,40.00,21,11,27,0.00
2013-4-28,64,52,41,45,38,30,76,59,41,0.00,40.00,19,8,24,0.00
2013-4-29,63,46,28,34,27,16,92,53,18,0.00,40.00,8,3,12,0.00
2013-4-30,63,50,39,52,37,25,97,62,28,0.00,40.00,23,11,38,0.00
2013-5-1,39,34,29,28,22,18,73,61,51,0.00,40.00,18,11,27,0.00
2013-5-2,35,31,26,25,22,19,81,71,56,0.00,40.00,16,9,20,0.00
2013-5-3,42,34,25,28,23,19,82,66,46,0.00,40.00,14,10,19,0.00
2013-5-4,36,35,33,36,32,27,96,91,69,0.00,40.00,12,9,16,0.00
2013-5-5,49,39,34,41,36,34,98,90,73,0.00,40.00,7,4,7,0.00
2013-5-6,54,38,30,43,35,30,97,89,63,0.00,40.00,6,2,7,0.00
2013-11-20,45,45,45,30,30,30,56,56,56,0.00,40.00,9,9,11,0.00
2013-12-3,29,29,29,28,28,28,95,95,95,0.00,40.00,13,13,16,0.00